Погода в Великополье

Россия / Республика Марий Эл     56°48′44″N   48°04′41″E
темп.,
°C
ветер,
м/с
пор.,
м/с
влажн.,
%
обл.,
%
осадки,
мм/ч
давл.,
гПа
погр.,
м
11 апреля, вс
вс1100:00+1с12100100 0.2 102658
03:00+1с25100100 0.2 1027150
06:00+1с24100100 0.0 1028157
09:00+2ссз2310099 0.0 1029130
12:00+3сз1198100 0.0 1031190
15:00+4ссз1293100 0.0 1032148
18:00+2в11100100 0.0 103315
21:000в11100100 0.0 103424
12 апреля, пн
пн1200:000св11100100 0.0 103538
03:000ссв24100100 0.0 1037106
06:00+1св26100100 0.0 1038173
09:00+3всв26100100 0.0 1039205
12:00+4всв36100100 0.0 1039231
15:00+5всв3799100 0.0 1039237
18:00+4в4898100 0.0 1039274
21:00+2в3998100 0.0 1038163
13 апреля, вт
вт1300:00+3вюв31097100 0.0 1037211
03:00+3юв3994100 0.0 1036172
06:00+3юв3796100 0.0 1036142
09:00+9ююв3788100 0.0 1035270
12:00+14ю4775100 0.0 1033586
15:00+16ю467283 0.0 1032774
18:00+13ююв348564 0.0 103160
21:00+9ю398862 0.0 1031144
14 апреля, ср
ср1400:00+7ю388757 0.0 1030120
03:00+6ю348539 0.0 103055
06:00+6ю348139 0.0 103064
09:00+12ю355998 0.0 1029309
12:00+16ююз45455 0.0 1028846
15:00+18ю45416 0.0 10261141
18:00+13ю355647 0.0 102570
21:00+9ю356458 0.0 102575
15 апреля, чт
чт1500:00+7ю347391 0.0 102465
03:00+6ю3381100 0.0 102333
06:00+7ю238368 0.0 102362
09:00+13ююз346094 0.0 1021375
12:00+17ююз354387 0.0 10201245
15:00+18юз343769 0.0 10181657
18:00+15з22525 0.0 101711
21:00+10зюз2263100 0.0 101718